Location: Newark
(37.7892°N, 97.1083°W)
Time: 09:57:35
(UTC+00:00)

ISS - Pass Details

Date: 22 December 2019
Orbit: 415 x 421 km, 51.6° (Epoch: 19 January)

Event Time Altitude Azimuth Distance (km) Brightness Sun altitude
Exits shadow 12:08:26 - 208° (SSW) 1,873 -0.6 -17.6°
Reaches altitude 10° 12:09:27 10° 203° (SSW) 1,477 -1.1 -17.4°
Maximum altitude 12:12:33 37° 134° (SE) 658 -2.3 -16.8°
Drops below altitude 10° 12:15:40 10° 65° (ENE) 1,486 -0.3 -16.2°
Sets 12:17:58 0° 57° (ENE) 2,406 0.7 -15.8°
